sat.trackr.live / text

‹ back to catalog

STARLINK-32413

NORAD 61590 · 2024-187S

PAYLOAD ACTIVE UNKNOWN

§ Identity

Operator
Country
US
Launch date
2024-10-18
Launch site
AFETR
Launch vehicle
Mass (kg)
RCS (m²)

Purposes: comms

External: N2YO · Heavens-Above · Gunter

§ Orbital elements

Epoch: 2026-09-21T21:46:30.427968Z

Period
93.85 min
Inclination
53.1582°
Eccentricity
0.0002026
Mean motion
15.34406788 rev/d
Perigee alt
461.3 km
Apogee alt
464.1 km
Semi-major
6,840.8 km
B*
7.8747e-4
RAAN
229.4828°
Arg perigee
109.3222°
Mean anomaly
250.8000°
Rev number
10,918

§ Raw data

STARLINK-324131 61590U 24187S   26264.90729662  .00026329  00000+0  78747-3 0  99912 61590  53.1582 229.4828 0002026 109.3222 250.8000 15.34406788109181

JSON: /api/v1/satellites/61590 · /tle

For live sub-satellite position, see the globe view (requires WebGL).

§ Visibility from observer

Set your observer location to see the next 7 days of passes ≥ 10°. The values pass through the URL so the page stays shareable.

No JS? Fill the form by hand. The geolocation button needs JavaScript.